Year,Month,Day,Hour,Minute,Value (Times are PST for temperature in C)
2018,07,24,00,00,20.00
2018,07,24,00,01,19.90
2018,07,24,00,02,19.90
2018,07,24,00,03,19.90
2018,07,24,00,04,19.80
2018,07,24,00,05,19.80
2018,07,24,00,06,19.80
2018,07,24,00,07,19.70
2018,07,24,00,08,19.70
2018,07,24,00,09,19.70
2018,07,24,00,10,19.70
2018,07,24,00,11,19.60
2018,07,24,00,12,19.60
2018,07,24,00,13,19.60
2018,07,24,00,14,19.50
2018,07,24,00,15,19.50
2018,07,24,00,16,19.40
2018,07,24,00,17,19.40
2018,07,24,00,18,19.40
2018,07,24,00,19,19.40
2018,07,24,00,20,19.30
2018,07,24,00,21,19.30
2018,07,24,00,22,19.30
2018,07,24,00,23,19.30
2018,07,24,00,24,19.30
2018,07,24,00,25,19.30
2018,07,24,00,26,19.30
2018,07,24,00,27,19.30
2018,07,24,00,28,19.30
2018,07,24,00,29,19.20
2018,07,24,00,30,19.20
2018,07,24,00,31,19.20
2018,07,24,00,32,19.20
2018,07,24,00,33,19.10
2018,07,24,00,34,19.10
2018,07,24,00,35,19.10
2018,07,24,00,36,19.00
2018,07,24,00,37,19.00
2018,07,24,00,38,18.90
2018,07,24,00,39,18.90
2018,07,24,00,40,18.80
2018,07,24,00,41,18.80
2018,07,24,00,42,18.80
2018,07,24,00,43,18.70
2018,07,24,00,44,18.70
2018,07,24,00,45,18.70
2018,07,24,00,46,18.70
2018,07,24,00,47,18.70
2018,07,24,00,48,18.70
2018,07,24,00,49,18.60
2018,07,24,00,50,18.60
2018,07,24,00,51,18.60
2018,07,24,00,52,18.60
2018,07,24,00,53,18.60
2018,07,24,00,54,18.60
2018,07,24,00,55,18.60
2018,07,24,00,56,18.60
2018,07,24,00,57,18.60
2018,07,24,00,58,18.60
2018,07,24,00,59,18.60
2018,07,24,01,00,18.60
2018,07,24,01,01,18.60
2018,07,24,01,02,18.60
2018,07,24,01,03,18.60
2018,07,24,01,04,18.60
2018,07,24,01,05,18.60
2018,07,24,01,06,18.60
2018,07,24,01,07,18.60
2018,07,24,01,08,18.60
2018,07,24,01,09,18.60
2018,07,24,01,10,18.60
2018,07,24,01,11,18.60
2018,07,24,01,12,18.60
2018,07,24,01,13,18.60
2018,07,24,01,14,18.60
2018,07,24,01,15,18.60
2018,07,24,01,16,18.60
2018,07,24,01,17,18.60
2018,07,24,01,18,18.60
2018,07,24,01,19,18.60
2018,07,24,01,20,18.60
2018,07,24,01,21,18.60
2018,07,24,01,22,18.60
2018,07,24,01,23,18.60
2018,07,24,01,24,18.60
2018,07,24,01,25,18.60
2018,07,24,01,26,18.60
2018,07,24,01,27,18.60
2018,07,24,01,28,18.50
2018,07,24,01,29,18.60
2018,07,24,01,30,18.60
2018,07,24,01,31,18.60
2018,07,24,01,32,18.60
2018,07,24,01,33,18.60
2018,07,24,01,34,18.60
2018,07,24,01,35,18.60
2018,07,24,01,36,18.60
2018,07,24,01,37,18.60
2018,07,24,01,38,18.60
2018,07,24,01,39,18.60
2018,07,24,01,40,18.50
2018,07,24,01,41,18.60
2018,07,24,01,42,18.50
2018,07,24,01,43,18.50
2018,07,24,01,44,18.40
2018,07,24,01,45,18.40
2018,07,24,01,46,18.40
2018,07,24,01,47,18.40
2018,07,24,01,48,18.40
2018,07,24,01,49,18.30
2018,07,24,01,50,18.30
2018,07,24,01,51,18.30
2018,07,24,01,52,18.30
2018,07,24,01,53,18.20
2018,07,24,01,54,18.20
2018,07,24,01,55,18.20
2018,07,24,01,56,18.20
2018,07,24,01,57,18.20
2018,07,24,01,58,18.10
2018,07,24,01,59,18.10
2018,07,24,02,00,18.10
2018,07,24,02,01,18.10
2018,07,24,02,02,18.00
2018,07,24,02,03,18.00
2018,07,24,02,04,18.00
2018,07,24,02,05,18.00
2018,07,24,02,06,18.00
2018,07,24,02,07,17.90
2018,07,24,02,08,17.90
2018,07,24,02,09,17.90
2018,07,24,02,10,17.90
2018,07,24,02,11,17.90
2018,07,24,02,12,17.90
2018,07,24,02,13,17.90
2018,07,24,02,14,17.90
2018,07,24,02,15,17.90
2018,07,24,02,16,17.80
2018,07,24,02,17,17.80
2018,07,24,02,18,17.80
2018,07,24,02,19,17.80
2018,07,24,02,20,17.70
2018,07,24,02,21,17.70
2018,07,24,02,22,17.70
2018,07,24,02,23,17.70
2018,07,24,02,24,17.70
2018,07,24,02,25,17.70
2018,07,24,02,26,17.70
2018,07,24,02,27,17.70
2018,07,24,02,28,17.70
2018,07,24,02,29,17.70
2018,07,24,02,30,17.70
2018,07,24,02,31,17.70
2018,07,24,02,32,17.70
2018,07,24,02,33,17.70
2018,07,24,02,34,17.70
2018,07,24,02,35,17.70
2018,07,24,02,36,17.70
2018,07,24,02,37,17.70
2018,07,24,02,38,17.70
2018,07,24,02,39,17.60
2018,07,24,02,40,17.60
2018,07,24,02,41,17.60
2018,07,24,02,42,17.60
2018,07,24,02,43,17.60
2018,07,24,02,44,17.60
2018,07,24,02,45,17.60
2018,07,24,02,46,17.60
2018,07,24,02,47,17.60
2018,07,24,02,48,17.60
2018,07,24,02,49,17.60
2018,07,24,02,50,17.60
2018,07,24,02,51,17.60
2018,07,24,02,52,17.60
2018,07,24,02,53,17.60
2018,07,24,02,54,17.60
2018,07,24,02,55,17.60
2018,07,24,02,56,17.60
2018,07,24,02,57,17.60
2018,07,24,02,58,17.60
2018,07,24,02,59,17.60
2018,07,24,03,00,17.60
2018,07,24,03,01,17.60
2018,07,24,03,02,17.60
2018,07,24,03,03,17.60
2018,07,24,03,04,17.60
2018,07,24,03,05,17.60
2018,07,24,03,06,17.60
2018,07,24,03,07,17.60
2018,07,24,03,08,17.60
2018,07,24,03,09,17.60
2018,07,24,03,10,17.70
2018,07,24,03,11,17.70
2018,07,24,03,12,17.70
2018,07,24,03,13,17.70
2018,07,24,03,14,17.70
2018,07,24,03,15,17.70
2018,07,24,03,16,17.70
2018,07,24,03,17,17.70
2018,07,24,03,18,17.70
2018,07,24,03,19,17.70
2018,07,24,03,20,17.70
2018,07,24,03,21,17.70
2018,07,24,03,22,17.70
2018,07,24,03,23,17.70
2018,07,24,03,24,17.70
2018,07,24,03,25,17.70
2018,07,24,03,26,17.70
2018,07,24,03,27,17.70
2018,07,24,03,28,17.70
2018,07,24,03,29,17.80
2018,07,24,03,30,17.80
2018,07,24,03,31,17.80
2018,07,24,03,32,17.80
2018,07,24,03,33,17.80
2018,07,24,03,34,17.80
2018,07,24,03,35,17.80
2018,07,24,03,36,17.90
2018,07,24,03,37,17.90
2018,07,24,03,38,17.90
2018,07,24,03,39,17.90
2018,07,24,03,40,17.90
2018,07,24,03,41,17.90
2018,07,24,03,42,17.90
2018,07,24,03,43,18.00
2018,07,24,03,44,18.00
2018,07,24,03,45,18.00
2018,07,24,03,46,18.00
2018,07,24,03,47,18.00
2018,07,24,03,48,18.00
2018,07,24,03,49,18.00
2018,07,24,03,50,18.00
2018,07,24,03,51,18.00
2018,07,24,03,52,18.00
2018,07,24,03,53,18.00
2018,07,24,03,54,18.00
2018,07,24,03,55,18.00
2018,07,24,03,56,18.00
2018,07,24,03,57,18.00
2018,07,24,03,58,18.00
2018,07,24,03,59,17.90
2018,07,24,04,00,17.90
2018,07,24,04,01,17.90
2018,07,24,04,02,17.90
2018,07,24,04,03,17.90
2018,07,24,04,04,17.90
2018,07,24,04,05,17.90
2018,07,24,04,06,17.90
2018,07,24,04,07,17.90
2018,07,24,04,08,17.90
2018,07,24,04,09,17.80
2018,07,24,04,10,17.80
2018,07,24,04,11,17.80
2018,07,24,04,12,17.80
2018,07,24,04,13,17.80
2018,07,24,04,14,17.80
2018,07,24,04,15,17.80
2018,07,24,04,16,17.70
2018,07,24,04,17,17.70
2018,07,24,04,18,17.70
2018,07,24,04,19,17.60
2018,07,24,04,20,17.60
2018,07,24,04,21,17.50
2018,07,24,04,22,17.50
2018,07,24,04,23,17.40
2018,07,24,04,24,17.40
2018,07,24,04,25,17.30
2018,07,24,04,26,17.30
2018,07,24,04,27,17.30
2018,07,24,04,28,17.30
2018,07,24,04,29,17.20
2018,07,24,04,30,17.20
2018,07,24,04,31,17.20
2018,07,24,04,32,17.20
2018,07,24,04,33,17.10
2018,07,24,04,34,17.10
2018,07,24,04,35,17.10
2018,07,24,04,36,17.10
2018,07,24,04,37,17.10
2018,07,24,04,38,17.10
2018,07,24,04,39,17.10
2018,07,24,04,40,17.10
2018,07,24,04,41,17.10
2018,07,24,04,42,17.10
2018,07,24,04,43,17.00
2018,07,24,04,44,17.10
2018,07,24,04,45,17.10
2018,07,24,04,46,17.10
2018,07,24,04,47,17.10
2018,07,24,04,48,17.10
2018,07,24,04,49,17.10
2018,07,24,04,50,17.10
2018,07,24,04,51,17.10
2018,07,24,04,52,17.20
2018,07,24,04,53,17.20
2018,07,24,04,54,17.20
2018,07,24,04,55,17.20
2018,07,24,04,56,17.20
2018,07,24,04,57,17.20
2018,07,24,04,58,17.30
2018,07,24,04,59,17.30
2018,07,24,05,00,17.30
2018,07,24,05,01,17.30
2018,07,24,05,02,17.30
2018,07,24,05,03,17.30
2018,07,24,05,04,17.30
2018,07,24,05,05,17.30
2018,07,24,05,06,17.30
2018,07,24,05,07,17.30
2018,07,24,05,08,17.30
2018,07,24,05,09,17.30
2018,07,24,05,10,17.30
2018,07,24,05,11,17.30
2018,07,24,05,12,17.30
2018,07,24,05,13,17.30
2018,07,24,05,14,17.30
2018,07,24,05,15,17.30
2018,07,24,05,16,17.30
2018,07,24,05,17,17.30
2018,07,24,05,18,17.30
2018,07,24,05,19,17.30
2018,07,24,05,20,17.30
2018,07,24,05,21,17.30
2018,07,24,05,22,17.30
2018,07,24,05,23,17.30
2018,07,24,05,24,17.30
2018,07,24,05,25,17.30
2018,07,24,05,26,17.30
2018,07,24,05,27,17.30
2018,07,24,05,28,17.30
2018,07,24,05,29,17.30
2018,07,24,05,30,17.30
2018,07,24,05,31,17.30
2018,07,24,05,32,17.30
2018,07,24,05,33,17.30
2018,07,24,05,34,17.30
2018,07,24,05,35,17.30
2018,07,24,05,36,17.30
2018,07,24,05,37,17.30
2018,07,24,05,38,17.30
2018,07,24,05,39,17.30
2018,07,24,05,40,17.30
2018,07,24,05,41,17.30
2018,07,24,05,42,17.30
2018,07,24,05,43,17.30
2018,07,24,05,44,17.20
2018,07,24,05,45,17.20
2018,07,24,05,46,17.20
2018,07,24,05,47,17.20
2018,07,24,05,48,17.20
2018,07,24,05,49,17.20
2018,07,24,05,50,17.20
2018,07,24,05,51,17.20
2018,07,24,05,52,17.20
2018,07,24,05,53,17.20
2018,07,24,05,54,17.20
2018,07,24,05,55,17.10
2018,07,24,05,56,17.20
2018,07,24,05,57,17.10
2018,07,24,05,58,17.10
2018,07,24,05,59,17.10
2018,07,24,06,00,17.10
2018,07,24,06,01,17.10
2018,07,24,06,02,17.10
2018,07,24,06,03,17.10
2018,07,24,06,04,17.10
2018,07,24,06,05,17.10
2018,07,24,06,06,17.10
2018,07,24,06,07,17.10
2018,07,24,06,08,17.10
2018,07,24,06,09,17.10
2018,07,24,06,10,17.10
2018,07,24,06,11,17.10
2018,07,24,06,12,17.10
2018,07,24,06,13,17.10
2018,07,24,06,14,17.10
2018,07,24,06,15,17.10
2018,07,24,06,16,17.20
2018,07,24,06,17,17.20
2018,07,24,06,18,17.20
2018,07,24,06,19,17.20
2018,07,24,06,20,17.20
2018,07,24,06,21,17.20
2018,07,24,06,22,17.20
2018,07,24,06,23,17.20
2018,07,24,06,24,17.20
2018,07,24,06,25,17.20
2018,07,24,06,26,17.20
2018,07,24,06,27,17.20
2018,07,24,06,28,17.20
2018,07,24,06,29,17.20
2018,07,24,06,30,17.20
2018,07,24,06,31,17.20
2018,07,24,06,32,17.20
2018,07,24,06,33,17.20
2018,07,24,06,34,17.20
2018,07,24,06,35,17.20
2018,07,24,06,36,17.20
2018,07,24,06,37,17.20
2018,07,24,06,38,17.20
2018,07,24,06,39,17.20
2018,07,24,06,40,17.20
2018,07,24,06,41,17.20
2018,07,24,06,42,17.20
2018,07,24,06,43,17.20
2018,07,24,06,44,17.20
2018,07,24,06,45,17.20
2018,07,24,06,46,17.20
2018,07,24,06,47,17.20
2018,07,24,06,48,17.20
2018,07,24,06,49,17.20
2018,07,24,06,50,17.20
2018,07,24,06,51,17.30
2018,07,24,06,52,17.20
2018,07,24,06,53,17.30
2018,07,24,06,54,17.20
2018,07,24,06,55,17.20
2018,07,24,06,56,17.20
2018,07,24,06,57,17.20
2018,07,24,06,58,17.20
2018,07,24,06,59,17.20
2018,07,24,07,00,17.20
2018,07,24,07,01,17.20
2018,07,24,07,02,17.20
2018,07,24,07,03,17.20
2018,07,24,07,04,17.30
2018,07,24,07,05,17.20
2018,07,24,07,06,17.20
2018,07,24,07,07,17.30
2018,07,24,07,08,17.30
2018,07,24,07,09,17.30
2018,07,24,07,10,17.30
2018,07,24,07,11,17.30
2018,07,24,07,12,17.30
2018,07,24,07,13,17.30
2018,07,24,07,14,17.30
2018,07,24,07,15,17.30
2018,07,24,07,16,17.30
2018,07,24,07,17,17.30
2018,07,24,07,18,17.30
2018,07,24,07,19,17.30
2018,07,24,07,20,17.30
2018,07,24,07,21,17.30
2018,07,24,07,22,17.30
2018,07,24,07,23,17.30
2018,07,24,07,24,17.40
2018,07,24,07,25,17.40
2018,07,24,07,26,17.40
2018,07,24,07,27,17.40
2018,07,24,07,28,17.40
2018,07,24,07,29,17.40
2018,07,24,07,30,17.40
2018,07,24,07,31,17.40
2018,07,24,07,32,17.40
2018,07,24,07,33,17.40
2018,07,24,07,34,17.50
2018,07,24,07,35,17.50
2018,07,24,07,36,17.50
2018,07,24,07,37,17.50
2018,07,24,07,38,17.50
2018,07,24,07,39,17.60
2018,07,24,07,40,17.60
2018,07,24,07,41,17.60
2018,07,24,07,42,17.60
2018,07,24,07,43,17.60
2018,07,24,07,44,17.60
2018,07,24,07,45,17.60
2018,07,24,07,46,17.60
2018,07,24,07,47,17.60
2018,07,24,07,48,17.60
2018,07,24,07,49,17.70
2018,07,24,07,50,17.70
2018,07,24,07,51,17.70
2018,07,24,07,52,17.70
2018,07,24,07,53,17.70
2018,07,24,07,54,17.70
2018,07,24,07,55,17.70
2018,07,24,07,56,17.60
2018,07,24,07,57,17.60
2018,07,24,07,58,17.60
2018,07,24,07,59,17.50
2018,07,24,08,00,17.50
2018,07,24,08,01,17.40
2018,07,24,08,02,17.40
2018,07,24,08,03,17.30
2018,07,24,08,04,17.30
2018,07,24,08,05,17.30
2018,07,24,08,06,17.20
2018,07,24,08,07,17.20
2018,07,24,08,08,17.20
2018,07,24,08,09,17.20
2018,07,24,08,10,17.20
2018,07,24,08,11,17.10
2018,07,24,08,12,17.10
2018,07,24,08,13,17.10
2018,07,24,08,14,17.10
2018,07,24,08,15,17.10
2018,07,24,08,16,17.10
2018,07,24,08,17,17.10
2018,07,24,08,18,17.10
2018,07,24,08,19,17.10
2018,07,24,08,20,17.10
2018,07,24,08,21,17.10
2018,07,24,08,22,17.10
2018,07,24,08,23,17.10
2018,07,24,08,24,17.20
2018,07,24,08,25,17.20
2018,07,24,08,26,17.20
2018,07,24,08,27,17.20
2018,07,24,08,28,17.20
2018,07,24,08,29,17.20
2018,07,24,08,30,17.20
2018,07,24,08,31,17.20
2018,07,24,08,32,17.20
2018,07,24,08,33,17.20
2018,07,24,08,34,17.30
2018,07,24,08,35,17.30
2018,07,24,08,36,17.30
2018,07,24,08,37,17.30
2018,07,24,08,38,17.30
2018,07,24,08,39,17.40
2018,07,24,08,40,17.40
2018,07,24,08,41,17.40
2018,07,24,08,42,17.50
2018,07,24,08,43,17.50
2018,07,24,08,44,17.50
2018,07,24,08,45,17.60
2018,07,24,08,46,17.60
2018,07,24,08,47,17.60
2018,07,24,08,48,17.70
2018,07,24,08,49,17.70
2018,07,24,08,50,17.70
2018,07,24,08,51,17.70
2018,07,24,08,52,17.70
2018,07,24,08,53,17.70
2018,07,24,08,54,17.70
2018,07,24,08,55,17.70
2018,07,24,08,56,17.80
2018,07,24,08,57,17.80
2018,07,24,08,58,17.80
2018,07,24,08,59,17.80
2018,07,24,09,00,17.80
2018,07,24,09,01,17.90
2018,07,24,09,02,17.90
2018,07,24,09,03,17.90
2018,07,24,09,04,17.90
2018,07,24,09,05,18.00
2018,07,24,09,06,18.00
2018,07,24,09,07,18.00
2018,07,24,09,08,18.10
2018,07,24,09,09,18.10
2018,07,24,09,10,18.10
2018,07,24,09,11,18.20
2018,07,24,09,12,18.20
2018,07,24,09,13,18.20
2018,07,24,09,14,18.20
2018,07,24,09,15,18.30
2018,07,24,09,16,18.30
2018,07,24,09,17,18.40
2018,07,24,09,18,18.40
2018,07,24,09,19,18.40
2018,07,24,09,20,18.40
2018,07,24,09,21,18.40
2018,07,24,09,22,18.40
2018,07,24,09,23,18.40
2018,07,24,09,24,18.40
2018,07,24,09,25,18.40
2018,07,24,09,26,18.40
2018,07,24,09,27,18.40
2018,07,24,09,28,18.40
2018,07,24,09,29,18.40
2018,07,24,09,30,18.40
2018,07,24,09,31,18.40
2018,07,24,09,32,18.40
2018,07,24,09,33,18.40
2018,07,24,09,34,18.40
2018,07,24,09,35,18.40
2018,07,24,09,36,18.50
2018,07,24,09,37,18.50
2018,07,24,09,38,18.50
2018,07,24,09,39,18.50
2018,07,24,09,40,18.50
2018,07,24,09,41,18.50
2018,07,24,09,42,18.50
2018,07,24,09,43,18.50
2018,07,24,09,44,18.50
2018,07,24,09,45,18.50
2018,07,24,09,46,18.50
2018,07,24,09,47,18.50
2018,07,24,09,48,18.50
2018,07,24,09,49,18.50
2018,07,24,09,50,18.40
2018,07,24,09,51,18.50
2018,07,24,09,52,18.40
2018,07,24,09,53,18.40
2018,07,24,09,54,18.40
2018,07,24,09,55,18.40
2018,07,24,09,56,18.40
2018,07,24,09,57,18.40
2018,07,24,09,58,18.40
2018,07,24,09,59,18.40
2018,07,24,10,00,18.40
2018,07,24,10,01,18.40
2018,07,24,10,02,18.40
2018,07,24,10,03,18.40
2018,07,24,10,04,18.40
2018,07,24,10,05,18.40
2018,07,24,10,06,18.40
2018,07,24,10,07,18.40
2018,07,24,10,08,18.40
2018,07,24,10,09,18.40
2018,07,24,10,10,18.40
2018,07,24,10,11,18.50
2018,07,24,10,12,18.50
2018,07,24,10,13,18.50
2018,07,24,10,14,18.50
2018,07,24,10,15,18.60
2018,07,24,10,16,18.60
2018,07,24,10,17,18.60
2018,07,24,10,18,18.60
2018,07,24,10,19,18.60
2018,07,24,10,20,18.70
2018,07,24,10,21,18.70
2018,07,24,10,22,18.70
2018,07,24,10,23,18.80
2018,07,24,10,24,18.80
2018,07,24,10,25,18.80
2018,07,24,10,26,18.80
2018,07,24,10,27,18.90
2018,07,24,10,28,18.90
2018,07,24,10,29,19.00
2018,07,24,10,30,19.00
2018,07,24,10,31,19.10
2018,07,24,10,32,19.10
2018,07,24,10,33,19.10
2018,07,24,10,34,19.10
2018,07,24,10,35,19.20
2018,07,24,10,36,19.20
2018,07,24,10,37,19.20
2018,07,24,10,38,19.20
2018,07,24,10,39,19.20
2018,07,24,10,40,19.30
2018,07,24,10,41,19.30
2018,07,24,10,42,19.30
2018,07,24,10,43,19.30
2018,07,24,10,44,19.40
2018,07,24,10,45,19.40
2018,07,24,10,46,19.50
2018,07,24,10,47,19.50
2018,07,24,10,48,19.50
2018,07,24,10,49,19.60
2018,07,24,10,50,19.60
2018,07,24,10,51,19.60
2018,07,24,10,52,19.70
2018,07,24,10,53,19.70
2018,07,24,10,54,19.80
2018,07,24,10,55,19.80
2018,07,24,10,56,19.90
2018,07,24,10,57,19.90
2018,07,24,10,58,19.90
2018,07,24,10,59,20.00
2018,07,24,11,00,20.00
2018,07,24,11,01,20.10
2018,07,24,11,02,20.10
2018,07,24,11,03,20.10
2018,07,24,11,04,20.10
2018,07,24,11,05,20.10
2018,07,24,11,06,20.20
2018,07,24,11,07,20.10
2018,07,24,11,08,20.20
2018,07,24,11,09,20.10
2018,07,24,11,10,20.10
2018,07,24,11,11,20.10
2018,07,24,11,12,20.20
2018,07,24,11,13,20.20
2018,07,24,11,14,20.20
2018,07,24,11,15,20.20
2018,07,24,11,16,20.20
2018,07,24,11,17,20.20
2018,07,24,11,18,20.30
2018,07,24,11,19,20.30
2018,07,24,11,20,20.30
2018,07,24,11,21,20.30
2018,07,24,11,22,20.30
2018,07,24,11,23,20.40
2018,07,24,11,24,20.40
2018,07,24,11,25,20.40
2018,07,24,11,26,20.40
2018,07,24,11,27,20.40
2018,07,24,11,28,20.40
2018,07,24,11,29,20.40
2018,07,24,11,30,20.40
2018,07,24,11,31,20.50
2018,07,24,11,32,20.50
2018,07,24,11,33,20.50
2018,07,24,11,34,20.50
2018,07,24,11,35,20.60
2018,07,24,11,36,20.60
2018,07,24,11,37,20.60
2018,07,24,11,38,20.60
2018,07,24,11,39,20.70
2018,07,24,11,40,20.70
2018,07,24,11,41,20.70
2018,07,24,11,42,20.80
2018,07,24,11,43,20.80
2018,07,24,11,44,20.80
2018,07,24,11,45,20.80
2018,07,24,11,46,20.90
2018,07,24,11,47,20.90
2018,07,24,11,48,20.90
2018,07,24,11,49,20.90
2018,07,24,11,50,20.90
2018,07,24,11,51,20.90
2018,07,24,11,52,20.90
2018,07,24,11,53,20.90
2018,07,24,11,54,20.90
2018,07,24,11,55,21.00
2018,07,24,11,56,21.00
2018,07,24,11,57,21.00
2018,07,24,11,58,21.00
2018,07,24,11,59,21.00
2018,07,24,12,00,21.00
2018,07,24,12,01,21.00
2018,07,24,12,02,21.00
2018,07,24,12,03,20.90
2018,07,24,12,04,20.90
2018,07,24,12,05,20.90
2018,07,24,12,06,20.90
2018,07,24,12,07,20.90
2018,07,24,12,08,20.90
2018,07,24,12,09,21.00
2018,07,24,12,10,21.00
2018,07,24,12,11,21.10
2018,07,24,12,12,21.20
2018,07,24,12,13,21.20
2018,07,24,12,14,21.30
2018,07,24,12,15,21.30
2018,07,24,12,16,21.40
2018,07,24,12,17,21.50
2018,07,24,12,18,21.60
2018,07,24,12,19,21.60
2018,07,24,12,20,21.70
2018,07,24,12,21,21.80
2018,07,24,12,22,21.80
2018,07,24,12,23,21.90
2018,07,24,12,24,21.90
2018,07,24,12,25,21.90
2018,07,24,12,26,22.00
2018,07,24,12,27,22.00
2018,07,24,12,28,22.10
2018,07,24,12,29,22.10
2018,07,24,12,30,22.10
2018,07,24,12,31,22.10
2018,07,24,12,32,22.20
2018,07,24,12,33,22.20
2018,07,24,12,34,22.20
2018,07,24,12,35,22.20
2018,07,24,12,36,22.20
2018,07,24,12,37,22.30
2018,07,24,12,38,22.30
2018,07,24,12,39,22.30
2018,07,24,12,40,22.30
2018,07,24,12,41,22.30
2018,07,24,12,42,22.40
2018,07,24,12,43,22.40
2018,07,24,12,44,22.40
2018,07,24,12,45,22.50
2018,07,24,12,46,22.50
2018,07,24,12,47,22.60
2018,07,24,12,48,22.70
2018,07,24,12,49,22.70
2018,07,24,12,50,22.70
2018,07,24,12,51,22.70
2018,07,24,12,52,22.70
2018,07,24,12,53,22.70
2018,07,24,12,54,22.60
2018,07,24,12,55,22.60
2018,07,24,12,56,22.60
2018,07,24,12,57,22.60
2018,07,24,12,58,22.60
2018,07,24,12,59,22.60
2018,07,24,13,00,22.60
2018,07,24,13,01,22.60
2018,07,24,13,02,22.60
2018,07,24,13,03,22.60
2018,07,24,13,04,22.60
2018,07,24,13,05,22.70
2018,07,24,13,06,22.60
2018,07,24,13,07,22.60
2018,07,24,13,08,22.70
2018,07,24,13,09,22.70
2018,07,24,13,10,22.70
2018,07,24,13,11,22.70
2018,07,24,13,12,22.80
2018,07,24,13,13,22.80
2018,07,24,13,14,22.80
2018,07,24,13,15,22.80
2018,07,24,13,16,22.80
2018,07,24,13,17,22.80
2018,07,24,13,18,22.90
2018,07,24,13,19,22.90
2018,07,24,13,20,23.00
2018,07,24,13,21,23.00
2018,07,24,13,22,23.00
2018,07,24,13,23,22.90
2018,07,24,13,24,22.90
2018,07,24,13,25,22.90
2018,07,24,13,26,22.90
2018,07,24,13,27,22.90
2018,07,24,13,28,22.80
2018,07,24,13,29,22.80
2018,07,24,13,30,22.80
2018,07,24,13,31,22.70
2018,07,24,13,32,22.70
2018,07,24,13,33,22.70
2018,07,24,13,34,22.70
2018,07,24,13,35,22.70
2018,07,24,13,36,22.70
2018,07,24,13,37,22.70
2018,07,24,13,38,22.70
2018,07,24,13,39,22.70
2018,07,24,13,40,22.70
2018,07,24,13,41,22.80
2018,07,24,13,42,22.80
2018,07,24,13,43,22.80
2018,07,24,13,44,22.80
2018,07,24,13,45,22.80
2018,07,24,13,46,22.80
2018,07,24,13,47,22.80
2018,07,24,13,48,22.90
2018,07,24,13,49,22.90
2018,07,24,13,50,23.00
2018,07,24,13,51,23.10
2018,07,24,13,52,23.20
2018,07,24,13,53,23.30
2018,07,24,13,54,23.40
2018,07,24,13,55,23.50
2018,07,24,13,56,23.60
2018,07,24,13,57,23.70
2018,07,24,13,58,23.70
2018,07,24,13,59,23.80
2018,07,24,14,00,23.80
2018,07,24,14,01,23.90
2018,07,24,14,02,23.90
2018,07,24,14,03,24.00
2018,07,24,14,04,24.10
2018,07,24,14,05,24.10
2018,07,24,14,06,24.20
2018,07,24,14,07,24.20
2018,07,24,14,08,24.20
2018,07,24,14,09,24.20
2018,07,24,14,10,24.20
2018,07,24,14,11,24.10
2018,07,24,14,12,24.10
2018,07,24,14,13,24.10
2018,07,24,14,14,24.10
2018,07,24,14,15,24.10
2018,07,24,14,16,24.10
2018,07,24,14,17,24.10
2018,07,24,14,18,24.10
2018,07,24,14,19,24.10
2018,07,24,14,20,24.10
2018,07,24,14,21,24.10
2018,07,24,14,22,24.10
2018,07,24,14,23,24.10
2018,07,24,14,24,24.10
2018,07,24,14,25,24.10
2018,07,24,14,26,24.10
2018,07,24,14,27,24.10
2018,07,24,14,28,24.20
2018,07,24,14,29,24.20
2018,07,24,14,30,24.20
2018,07,24,14,31,24.10
2018,07,24,14,32,24.10
2018,07,24,14,33,24.20
2018,07,24,14,34,24.20
2018,07,24,14,35,24.20
2018,07,24,14,36,24.20
2018,07,24,14,37,24.20
2018,07,24,14,38,24.20
2018,07,24,14,39,24.30
2018,07,24,14,40,24.30
2018,07,24,14,41,24.30
2018,07,24,14,42,24.20
2018,07,24,14,43,24.20
2018,07,24,14,44,24.20
2018,07,24,14,45,24.20
2018,07,24,14,46,24.20
2018,07,24,14,47,24.20
2018,07,24,14,48,24.20
2018,07,24,14,49,24.30
2018,07,24,14,50,24.40
2018,07,24,14,51,24.50
2018,07,24,14,52,24.60
2018,07,24,14,53,24.70
2018,07,24,14,54,24.80
2018,07,24,14,55,25.00
2018,07,24,14,56,25.00
2018,07,24,14,57,25.10
2018,07,24,14,58,25.10
2018,07,24,14,59,25.00
2018,07,24,15,00,24.90
2018,07,24,15,01,24.70
2018,07,24,15,02,24.60
2018,07,24,15,03,24.50
2018,07,24,15,04,24.40
2018,07,24,15,05,24.30
2018,07,24,15,06,24.20
2018,07,24,15,07,24.20
2018,07,24,15,08,24.20
2018,07,24,15,09,24.10
2018,07,24,15,10,24.20
2018,07,24,15,11,24.20
2018,07,24,15,12,24.20
2018,07,24,15,13,24.30
2018,07,24,15,14,24.30
2018,07,24,15,15,24.30
2018,07,24,15,16,24.40
2018,07,24,15,17,24.40
2018,07,24,15,18,24.50
2018,07,24,15,19,24.60
2018,07,24,15,20,24.60
2018,07,24,15,21,24.70
2018,07,24,15,22,24.80
2018,07,24,15,23,24.90
2018,07,24,15,24,25.10
2018,07,24,15,25,25.20
2018,07,24,15,26,25.20
2018,07,24,15,27,25.20
2018,07,24,15,28,25.20
2018,07,24,15,29,25.20
2018,07,24,15,30,25.20
2018,07,24,15,31,25.30
2018,07,24,15,32,25.30
2018,07,24,15,33,25.30
2018,07,24,15,34,25.30
2018,07,24,15,35,25.30
2018,07,24,15,36,25.30
2018,07,24,15,37,25.30
2018,07,24,15,38,25.30
2018,07,24,15,39,25.30
2018,07,24,15,40,25.40
2018,07,24,15,41,25.50
2018,07,24,15,42,25.60
2018,07,24,15,43,25.70
2018,07,24,15,44,25.60
2018,07,24,15,45,25.50
2018,07,24,15,46,25.40
2018,07,24,15,47,25.30
2018,07,24,15,48,25.10
2018,07,24,15,49,25.00
2018,07,24,15,50,24.90
2018,07,24,15,51,24.80
2018,07,24,15,52,24.80
2018,07,24,15,53,24.80
2018,07,24,15,54,24.90
2018,07,24,15,55,25.00
2018,07,24,15,56,25.00
2018,07,24,15,57,25.10
2018,07,24,15,58,25.20
2018,07,24,15,59,25.20
2018,07,24,16,00,25.30
2018,07,24,16,01,25.40
2018,07,24,16,02,25.50
2018,07,24,16,03,25.60
2018,07,24,16,04,25.70
2018,07,24,16,05,25.80
2018,07,24,16,06,25.80
2018,07,24,16,07,25.90
2018,07,24,16,08,25.90
2018,07,24,16,09,25.90
2018,07,24,16,10,25.90
2018,07,24,16,11,25.80
2018,07,24,16,12,25.80
2018,07,24,16,13,25.80
2018,07,24,16,14,25.80
2018,07,24,16,15,25.80
2018,07,24,16,16,25.70
2018,07,24,16,17,25.60
2018,07,24,16,18,25.60
2018,07,24,16,19,25.50
2018,07,24,16,20,25.40
2018,07,24,16,21,25.40
2018,07,24,16,22,25.30
2018,07,24,16,23,25.30
2018,07,24,16,24,25.30
2018,07,24,16,25,25.30
2018,07,24,16,26,25.30
2018,07,24,16,27,25.30
2018,07,24,16,28,25.30
2018,07,24,16,29,25.30
2018,07,24,16,30,25.20
2018,07,24,16,31,25.20
2018,07,24,16,32,25.30
2018,07,24,16,33,25.30
2018,07,24,16,34,25.30
2018,07,24,16,35,25.30
2018,07,24,16,36,25.30
2018,07,24,16,37,25.30
2018,07,24,16,38,25.30
2018,07,24,16,39,25.30
2018,07,24,16,40,25.40
2018,07,24,16,41,25.40
2018,07,24,16,42,25.50
2018,07,24,16,43,25.50
2018,07,24,16,44,25.60
2018,07,24,16,45,25.60
2018,07,24,16,46,25.70
2018,07,24,16,47,25.70
2018,07,24,16,48,25.70
2018,07,24,16,49,25.70
2018,07,24,16,50,25.80
2018,07,24,16,51,25.80
2018,07,24,16,52,25.70
2018,07,24,16,53,25.80
2018,07,24,16,54,25.80
2018,07,24,16,55,25.80
2018,07,24,16,56,25.80
2018,07,24,16,57,25.80
2018,07,24,16,58,25.80
2018,07,24,16,59,25.90
2018,07,24,17,00,25.90
2018,07,24,17,01,25.90
2018,07,24,17,02,25.90
2018,07,24,17,03,25.90
2018,07,24,17,04,25.90
2018,07,24,17,05,25.90
2018,07,24,17,06,26.00
2018,07,24,17,07,26.00
2018,07,24,17,08,26.10
2018,07,24,17,09,26.10
2018,07,24,17,10,26.10
2018,07,24,17,11,26.20
2018,07,24,17,12,26.20
2018,07,24,17,13,26.20
2018,07,24,17,14,26.20
2018,07,24,17,15,26.20
2018,07,24,17,16,26.20
2018,07,24,17,17,26.20
2018,07,24,17,18,26.20
2018,07,24,17,19,26.30